DW6340 Weather Reports


time (UTC)temp
C
wind
direction
speed
KPH
gust
KPH
rain 1hr
cm
rain 24hr
cm
rain mn
cm
humidity
%
barometer
mb
20260906224526 25 289 0.0 3.2 0.00 0.10 0.00 25 1003.7
20260906223024 25 289 0.0 3.2 0.00 0.10 0.00 24 1003.8
20260906221523 24 289 0.0 3.2 0.00 0.10 0.00 24 1004.0
20260906220021 22 289 0.0 3.2 0.00 0.10 0.00 26 1004.1
20260906214523 23 289 0.0 3.2 0.00 0.10 0.00 27 1004.2
20260906213020 23 289 0.0 3.2 0.00 0.10 0.00 26 1004.4
20260906211518 23 289 0.0 6.4 0.00 0.10 0.00 27 1004.6
20260906210017 24 282 0.0 6.4 0.00 0.10 0.00 26 1004.5
20260906204515 23 38 0.0 1.6 0.00 0.10 0.00 27 1004.7
20260906203014 23 38 0.0 3.2 0.00 0.10 0.00 26 1004.8
20260906201513 25 38 0.0 4.8 0.00 0.10 0.00 26 1004.8
20260906200011 25 76 0.0 4.8 0.00 0.10 0.00 26 1004.9
20260906194510 25 43 0.0 4.8 0.00 0.10 0.00 26 1005.0
20260906193008 25 10 0.0 3.2 0.00 0.10 0.00 27 1005.1
20260906191509 24 337 0.0 8.0 0.00 0.10 0.00 28 1005.4
20260906190003 23 270 0.0 6.4 0.00 0.10 0.00 31 1005.8
20260906184601 25 61 0.0 1.6 0.00 0.10 0.00 27 1005.8
20260906183058 24 83 0.0 4.8 0.00 0.10 0.00 30 1006.0
20260906181555 23 101 0.0 3.2 0.00 0.10 0.00 29 1006.6
20260906180104 23 112 0.0 3.2 0.00 0.10 0.00 31 1006.8
20260906174548 23 130 0.0 8.0 0.00 0.10 0.00 32 1007.3
20260906173045 23 115 0.0 6.4 0.00 0.10 0.00 33 1007.3
20260906171541 22 122 0.0 0.0 0.00 0.10 0.00 34 1007.6
20260906170049 22 110 0.0 0.0 0.00 0.10 0.00 34 1007.7
20260906164534 21 60 0.0 0.0 0.00 0.10 0.00 37 1008.0
20260906163037 21 79 0.0 0.0 0.00 0.10 0.00 42 1008.2
20260906161526 19 80 0.0 0.0 0.00 0.10 0.00 41 1008.5
20260906160021 17 134 0.0 0.0 0.00 0.10 0.00 51 1008.6
20260906154520 15 134 0.0 0.0 0.00 0.10 0.00 57 1008.6
20260906153014 15 134 0.0 0.0 0.00 0.10 0.00 57 1008.6
20260906151511 14 134 0.0 0.0 0.00 0.10 0.00 59 1008.8
20260906150018 13 134 0.0 0.0 0.00 0.10 0.00 61 1009.0
20260906144510 12 134 0.0 0.0 0.00 0.10 0.00 65 1008.8
20260906143113 12 134 0.0 0.0 0.00 0.10 0.00 67 1008.8
20260906141558 10 134 0.0 0.0 0.00 0.10 0.00 68 1008.8
20260906140056 10 134 0.0 0.0 0.00 0.10 0.00 69 1009.1
20260906134554 9 134 0.0 0.0 0.00 0.10 0.00 71 1008.9
20260906133054 9 134 0.0 0.0 0.00 0.10 0.00 72 1008.5
20260906131553 8 134 0.0 0.0 0.00 0.10 0.00 73 1008.3
20260906130051 8 134 0.0 0.0 0.00 0.10 0.00 73 1008.4
20260906124550 8 134 0.0 0.0 0.00 0.10 0.00 73 1008.2
20260906123050 8 134 0.0 0.0 0.00 0.10 0.00 74 1008.1
20260906121555 8 134 0.0 0.0 0.00 0.10 0.00 76 1008.1
20260906120107 8 134 0.0 0.0 0.00 0.10 0.00 76 1008.2
20260906114545 8 134 0.0 0.0 0.00 0.10 0.00 76 1008.3
20260906113048 8 134 0.0 0.0 0.00 0.10 0.00 74 1008.4
20260906111554 8 134 0.0 0.0 0.00 0.10 0.00 73 1008.5
20260906110043 8 134 0.0 0.0 0.00 0.10 0.00 73 1008.7
20260906104541 8 134 0.0 0.0 0.00 0.10 0.00 75 1008.6
20260906103043 8 134 0.0 0.0 0.00 0.10 0.00 77 1008.5
20260906101539 8 134 0.0 0.0 0.00 0.10 0.00 77 1008.4
20260906100037 8 134 0.0 0.0 0.00 0.10 0.00 75 1008.5
20260906094540 9 134 0.0 0.0 0.00 0.10 0.00 74 1008.5
20260906093040 8 134 0.0 0.0 0.00 0.10 0.00 74 1008.5
20260906091536 9 134 0.0 0.0 0.00 0.10 0.00 75 1008.5
20260906090035 9 134 0.0 0.0 0.00 0.10 0.00 74 1008.6
20260906084544 9 134 0.0 0.0 0.00 0.10 0.00 76 1008.6
20260906083037 8 134 0.0 0.0 0.00 0.10 0.00 77 1008.5
20260906081532 8 134 0.0 0.0 0.00 0.10 0.00 77 1008.6
20260906080034 10 134 0.0 0.0 0.00 0.10 0.00 74 1008.5
20260906074527 10 134 0.0 0.0 0.00 0.10 0.00 76 1008.5
20260906073037 10 134 0.0 0.0 0.00 0.10 0.00 77 1008.6
20260906071524 10 134 0.0 0.0 0.00 0.10 0.00 79 1008.5
20260906070021 10 134 0.0 0.0 0.00 0.10 0.00 78 1008.6
20260906064520 10 134 0.0 0.0 0.00 0.10 0.00 77 1008.6
20260906063020 10 134 0.0 0.0 0.00 0.10 0.00 77 1008.6
20260906061517 11 134 0.0 0.0 0.00 0.10 0.00 76 1008.6
20260906060014 11 134 0.0 0.0 0.00 0.10 0.00 73 1008.6
20260906054515 11 134 0.0 0.0 0.00 0.10 0.10 72 1008.3
20260906053013 11 134 0.0 0.0 0.00 0.10 0.10 74 1008.6
20260906051513 11 134 0.0 0.0 0.00 0.10 0.10 74 1008.7
20260906050013 12 134 0.0 0.0 0.00 0.10 0.10 75 1008.5
20260906044515 12 134 0.0 0.0 0.00 0.10 0.10 73 1008.9
20260906043011 12 134 0.0 0.0 0.00 0.10 0.10 72 1008.9
20260906041511 12 134 0.0 0.0 0.00 0.10 0.10 70 1009.1
20260906040014 13 132 0.0 16.1 0.00 0.10 0.10 69 1009.3
20260906034512 13 121 0.0 3.2 0.00 0.10 0.10 68 1008.9
20260906033022 13 284 0.0 3.2 0.00 0.10 0.10 69 1008.9
20260906031508 13 286 0.0 3.2 0.00 0.10 0.10 67 1008.4
20260906030009 13 290 0.0 0.0 0.00 0.10 0.10 65 1008.1
20260906024507 13 290 0.0 0.0 0.00 0.10 0.10 64 1007.8
20260906023007 13 290 0.0 0.0 0.00 0.10 0.10 63 1007.5
20260906021507 13 290 0.0 0.0 0.00 0.10 0.10 63 1007.6
20260906020007 13 290 0.0 0.0 0.00 0.10 0.10 56 1007.0
20260906014517 13 290 0.0 0.0 0.00 0.10 0.10 56 1006.3
20260906013008 13 290 0.0 0.0 0.00 0.10 0.10 59 1006.0
20260906011506 13 290 0.0 0.0 0.03 0.10 0.10 63 1005.9
20260906010005 13 290 0.0 0.0 0.05 0.10 0.10 67 1005.7
20260906004505 13 290 0.0 0.0 0.08 0.10 0.10 68 1005.7
20260906003004 14 290 0.0 0.0 0.10 0.10 0.10 69 1005.6
20260906001504 15 290 0.0 0.0 0.08 0.08 0.08 70 1005.7
20260906000003 15 290 0.0 0.0 0.05 0.05 0.05 76 1005.5
20260905234502 17 290 0.0 0.0 0.03 0.03 0.03 74 1005.7
20260905233101 19 289 0.0 0.0 0.00 0.00 0.00 48 1005.9
20260905231559 20 289 0.0 1.6 0.00 0.00 0.00 37 1005.7
20260905230058 20 326 0.0 3.2 0.00 0.00 0.00 36 1005.5